,,PA_Meas_PMT16A,,PR_Meas_QMR101_102,,RH_Meas_QMH101,,SR_Meas_QMS101,,TA_Meas_QMH101,,GenWind,,GenWind,
time,status,PA,status,PR,status,RH,status,SR,status,TA,status,DirAvg,status,SpdAvg,
2016-10-05, 13:55:04,VALID,918.485,VALID,0,VALID,104,VALID,87.5645,VALID,19.0442,VALID,11,VALID,0.743359,
2016-10-05, 13:56:04,VALID,918.502,VALID,0,VALID,100.522,VALID,79.8288,VALID,19.0427,VALID,307,VALID,0.73125,
2016-10-05, 13:57:04,VALID,918.48,VALID,0,VALID,95.895,VALID,89.4985,VALID,19.0427,VALID,329,VALID,0.635547,
2016-10-05, 14:08:04,VALID,918.632,VALID,0,VALID,93.2801,VALID,95.8375,VALID,19.7058,VALID,1,VALID,1.41016,
2016-10-05, 14:11:04,VALID,918.597,VALID,0,VALID,95.3232,VALID,113.565,VALID,19.9398,VALID,352,VALID,1.32266,
2016-10-05, 14:20:04,VALID,918.781,VALID,0,VALID,87.5168,VALID,145.046,VALID,20.5445,VALID,13,VALID,1.53047,
2016-10-05, 14:24:04,VALID,918.809,VALID,0,VALID,86.3276,VALID,154.93,VALID,20.5836,VALID,360,VALID,2.26094,
2016-10-05, 14:25:04,VALID,916.943,VALID,0,VALID,86.9832,VALID,159.443,VALID,20.6031,VALID,342,VALID,1.71055,
2016-10-05, 14:31:04,VALID,919.789,VALID,0,VALID,94.9192,VALID,164.278,VALID,20.7185,VALID,353,VALID,0,
2016-10-05, 14:32:04,VALID,918.197,VALID,0,VALID,88.7213,VALID,169.327,VALID,20.7185,VALID,359,VALID,1.42852,
2016-10-05, 14:33:04,VALID,920.024,VALID,0,VALID,89.4074,VALID,174.699,VALID,20.7771,VALID,359,VALID,1.14727,
2016-10-05, 14:34:04,VALID,918.961,VALID,0,VALID,89.4455,VALID,180.179,VALID,20.8356,VALID,335,VALID,0.291406,
2016-10-05, 14:35:04,VALID,918.823,VALID,0,VALID,86.1675,VALID,187.807,VALID,20.8551,VALID,335,VALID,1.85781,
2016-10-05, 14:36:04,VALID,918.824,VALID,0,VALID,88.0581,VALID,186.625,VALID,20.8551,VALID,20,VALID,0.808594,
2016-10-05, 14:37:04,VALID,918.818,VALID,0,VALID,85.3136,VALID,189.096,VALID,20.8941,VALID,13,VALID,1.45234,
2016-10-05, 14:38:04,VALID,918.828,VALID,0,VALID,84.4598,VALID,195.543,VALID,20.9527,VALID,344,VALID,0,
2016-10-05, 14:39:04,VALID,918.455,VALID,0,VALID,84.3302,VALID,192.964,VALID,20.9527,VALID,340,VALID,1.20469,
2016-10-05, 14:40:04,VALID,919.429,VALID,0,VALID,85.1383,VALID,194.361,VALID,20.9722,VALID,328,VALID,0.607031,
2016-10-05, 14:41:04,VALID,918.692,VALID,0,VALID,84.4217,VALID,199.518,VALID,20.9901,VALID,344,VALID,0.0402344,
2016-10-05, 14:42:04,VALID,918.924,VALID,0,VALID,85.3899,VALID,207.361,VALID,21.0112,VALID,355,VALID,2.05703,
2016-10-05, 14:43:04,VALID,918.882,VALID,0,VALID,90.3527,VALID,211.874,VALID,21.0681,VALID,348,VALID,0.0992187,
2016-10-05, 14:44:04,VALID,918.904,VALID,0,VALID,86.2894,VALID,218.213,VALID,21.1266,VALID,1,VALID,1.98516,
2016-10-05, 14:45:04,VALID,918.94,VALID,0,VALID,85.3289,VALID,221.866,VALID,21.1657,VALID,346,VALID,1.40547,
2016-10-05, 14:46:04,VALID,918.972,VALID,0,VALID,85.6415,VALID,221.759,VALID,21.2437,VALID,359,VALID,1.53672,
2016-10-05, 14:47:04,VALID,918.974,VALID,0,VALID,83.3773,VALID,226.701,VALID,21.3022,VALID,329,VALID,1.52344,
2016-10-05, 14:48:04,VALID,918.984,VALID,0,VALID,82.6683,VALID,235.511,VALID,21.3201,VALID,309,VALID,1.00352,
2016-10-05, 14:49:04,VALID,918.972,VALID,0,VALID,83.6975,VALID,245.288,VALID,21.3412,VALID,323,VALID,0.816797,
2016-10-05, 14:50:04,VALID,918.957,VALID,0,VALID,83.6517,VALID,248.619,VALID,21.3201,VALID,352,VALID,0.821094,
2016-10-05, 14:51:04,VALID,918.983,VALID,0,VALID,85.1688,VALID,252.164,VALID,21.3998,VALID,10,VALID,1.11406,
2016-10-05, 14:52:04,VALID,918.982,VALID,0,VALID,83.6365,VALID,244.214,VALID,21.4567,VALID,4,VALID,0.782422,
2016-10-05, 14:53:04,VALID,918.992,VALID,0,VALID,84.0253,VALID,246.792,VALID,21.5754,VALID,3,VALID,0,
2016-10-05, 14:54:04,VALID,918.995,VALID,0,VALID,81.2809,VALID,249.801,VALID,21.5737,VALID,325,VALID,0.672266,
2016-10-05, 14:55:04,VALID,919.026,VALID,0,VALID,82.4625,VALID,241.205,VALID,21.5347,VALID,353,VALID,0.905469,
2016-10-05, 14:56:04,VALID,919.007,VALID,0,VALID,83.2553,VALID,217.676,VALID,21.4567,VALID,30,VALID,1.29258,
2016-10-05, 14:57:04,VALID,918.978,VALID,0,VALID,84.0177,VALID,225.089,VALID,21.4567,VALID,18,VALID,2.08594,
2016-10-05, 14:58:04,VALID,918.989,VALID,0,VALID,83.545,VALID,226.379,VALID,21.4778,VALID,7,VALID,0.830469,
2016-10-05, 14:59:04,VALID,919,VALID,0,VALID,83.8804,VALID,238.842,VALID,21.5347,VALID,351,VALID,1.05195,
2016-10-05, 15:00:04,VALID,919.019,VALID,0,VALID,83.7661,VALID,244.106,VALID,21.5542,VALID,21,VALID,1.34258,
2016-10-05, 15:01:04,VALID,919.021,VALID,0,VALID,83.4688,VALID,236.371,VALID,21.5559,VALID,325,VALID,1.05625,
2016-10-05, 15:02:04,VALID,919.083,VALID,0,VALID,83.3163,VALID,253.669,VALID,21.4973,VALID,336,VALID,0.923437,
2016-10-05, 15:03:04,VALID,919.121,VALID,0,VALID,83.9033,VALID,243.354,VALID,21.4762,VALID,277,VALID,0.899609,
2016-10-05, 15:04:04,VALID,919.173,VALID,0,VALID,84.6428,VALID,264.305,VALID,21.4957,VALID,13,VALID,0,
2016-10-05, 15:05:04,VALID,919.213,VALID,0,VALID,84.8486,VALID,246.47,VALID,21.4746,VALID,15,VALID,0.0933594,
2016-10-05, 15:06:04,VALID,919.24,VALID,0,VALID,83.5755,VALID,223.907,VALID,21.4762,VALID,295,VALID,0,
2016-10-05, 15:07:04,VALID,919.283,VALID,0,VALID,85.2984,VALID,232.18,VALID,21.416,VALID,354,VALID,0,
2016-10-05, 15:08:04,VALID,919.33,VALID,0,VALID,85.4356,VALID,191.245,VALID,21.455,VALID,16,VALID,0,
2016-10-05, 15:09:04,VALID,919.359,VALID,0,VALID,85.2832,VALID,191.03,VALID,21.4941,VALID,5,VALID,1.47539,
2016-10-05, 15:10:04,VALID,919.344,VALID,0,VALID,86.1065,VALID,202.527,VALID,21.4355,VALID,17,VALID,1.44375,
2016-10-05, 15:11:04,VALID,919.366,VALID,0,VALID,87.0747,VALID,276.339,VALID,21.3981,VALID,22,VALID,2.04453,
2016-10-05, 15:12:04,VALID,919.392,VALID,0,VALID,89.5294,VALID,272.363,VALID,21.3201,VALID,14,VALID,1.67305,
2016-10-05, 15:13:04,VALID,919.436,VALID,0,VALID,90.5509,VALID,252.379,VALID,21.3575,VALID,317,VALID,0.813281,
2016-10-05, 15:14:04,VALID,919.435,VALID,0,VALID,87.2881,VALID,270.537,VALID,21.3591,VALID,304,VALID,0.573438,
2016-10-05, 15:15:04,VALID,919.455,VALID,0,VALID,86.846,VALID,214.238,VALID,21.4372,VALID,334,VALID,0,
2016-10-05, 15:16:04,VALID,919.48,VALID,0,VALID,85.9693,VALID,279.562,VALID,21.4583,VALID,9,VALID,1.51367,
2016-10-05, 15:17:04,VALID,919.484,VALID,0,VALID,90.368,VALID,222.403,VALID,21.3981,VALID,17,VALID,1.64531,
2016-10-05, 15:18:04,VALID,919.509,VALID,0,VALID,96.4896,VALID,238.519,VALID,21.4372,VALID,19,VALID,1.61094,
2016-10-05, 15:19:04,VALID,919.523,VALID,0,VALID,89.598,VALID,235.189,VALID,21.4957,VALID,25,VALID,0.908203,
2016-10-05, 15:20:04,VALID,919.564,VALID,0,VALID,94.416,VALID,268.388,VALID,21.5737,VALID,12,VALID,1.23125,
2016-10-05, 15:21:04,VALID,919.55,VALID,0,VALID,88.2715,VALID,323.72,VALID,21.6306,VALID,351,VALID,1.62305,
2016-10-05, 15:22:04,VALID,919.562,VALID,0,VALID,86.3962,VALID,247.974,VALID,21.6518,VALID,316,VALID,0,
2016-10-05, 15:23:04,VALID,919.508,VALID,0,VALID,88.0733,VALID,328.77,VALID,21.7477,VALID,353,VALID,0,
2016-10-05, 15:24:04,VALID,919.496,VALID,0,VALID,84.7038,VALID,390.226,VALID,21.8274,VALID,335,VALID,0.00429688,
2016-10-05, 15:25:04,VALID,919.505,VALID,0,VALID,86.6249,VALID,404.409,VALID,21.9054,VALID,350,VALID,0,
2016-10-05, 15:26:04,VALID,919.511,VALID,0,VALID,85.9083,VALID,408.384,VALID,22.0225,VALID,8,VALID,0,
2016-10-05, 15:27:04,VALID,919.478,VALID,0,VALID,86.1294,VALID,398.929,VALID,22.1769,VALID,23,VALID,0,
2016-10-05, 15:28:04,VALID,919.436,VALID,0,VALID,83.4307,VALID,432.236,VALID,22.2762,VALID,321,VALID,0.535156,
2016-10-05, 15:29:04,VALID,919.445,VALID,0,VALID,83.0342,VALID,455.013,VALID,22.3152,VALID,308,VALID,1.16562,
2016-10-05, 15:30:04,VALID,919.441,VALID,0,VALID,85.2603,VALID,455.765,VALID,22.3542,VALID,351,VALID,1.94336,
2016-10-05, 15:31:04,VALID,919.44,VALID,0,VALID,82.6302,VALID,490.576,VALID,22.294,VALID,347,VALID,2.93125,
2016-10-05, 15:32:04,VALID,919.437,VALID,0,VALID,86.6935,VALID,324.365,VALID,22.2159,VALID,22,VALID,1.77852,
2016-10-05, 15:33:04,VALID,919.452,VALID,0,VALID,86.7011,VALID,303.091,VALID,22.2354,VALID,25,VALID,1.30547,
2016-10-05, 15:34:04,VALID,919.445,VALID,0,VALID,87.7684,VALID,485.204,VALID,22.3525,VALID,29,VALID,2.21758,
2016-10-05, 15:35:04,VALID,919.452,VALID,0,VALID,84.7953,VALID,457.162,VALID,22.5281,VALID,36,VALID,1.2543,
2016-10-05, 15:36:04,VALID,919.452,VALID,0,VALID,83.5069,VALID,394.846,VALID,22.6647,VALID,342,VALID,1.53828,
2016-10-05, 15:37:04,VALID,919.513,VALID,0,VALID,82.4472,VALID,356.167,VALID,22.6647,VALID,35,VALID,1.32461,
2016-10-05, 15:38:04,VALID,919.513,VALID,0,VALID,84.315,VALID,370.994,VALID,22.6647,VALID,27,VALID,1.55313,
2016-10-05, 15:39:04,VALID,919.468,VALID,0,VALID,82.8589,VALID,377.011,VALID,22.6825,VALID,23,VALID,2.17305,
2016-10-05, 15:40:04,VALID,919.521,VALID,0,VALID,83.8118,VALID,444.591,VALID,22.6045,VALID,14,VALID,2.20859,
2016-10-05, 15:41:04,VALID,919.524,VALID,0,VALID,85.5042,VALID,344.671,VALID,22.6647,VALID,8,VALID,1.46602,
2016-10-05, 15:42:04,VALID,919.539,VALID,0,VALID,81.7764,VALID,336.398,VALID,22.6647,VALID,286,VALID,1.02305,
2016-10-05, 15:43:04,VALID,919.542,VALID,0,VALID,82.8284,VALID,412.896,VALID,22.4696,VALID,290,VALID,0.510156,
2016-10-05, 15:44:04,VALID,919.509,VALID,0,VALID,86.9146,VALID,376.259,VALID,22.4891,VALID,359,VALID,0.714453,
2016-10-05, 15:45:04,VALID,919.481,VALID,0,VALID,85.9159,VALID,426.434,VALID,22.4891,VALID,12,VALID,2.57891,
2016-10-05, 15:46:04,VALID,919.455,VALID,0,VALID,84.6962,VALID,462.749,VALID,22.5459,VALID,307,VALID,0.807813,
2016-10-05, 15:47:04,VALID,919.478,VALID,0,VALID,84.3455,VALID,523.883,VALID,22.7021,VALID,13,VALID,0.489062,
2016-10-05, 15:48:04,VALID,919.456,VALID,0,VALID,82.0966,VALID,453.939,VALID,22.9185,VALID,304,VALID,0.0984375,
2016-10-05, 15:49:04,VALID,919.427,VALID,0,VALID,82.5768,VALID,426.004,VALID,23.016,VALID,316,VALID,0,
2016-10-05, 15:50:04,VALID,919.415,VALID,0,VALID,79.8477,VALID,462.534,VALID,22.9575,VALID,332,VALID,0.304297,
2016-10-05, 15:51:04,VALID,919.431,VALID,0,VALID,82.3024,VALID,516.685,VALID,22.9557,VALID,7,VALID,1.34766,
2016-10-05, 15:52:04,VALID,919.462,VALID,0,VALID,84.0939,VALID,580.505,VALID,23.0924,VALID,4,VALID,1.49648,
2016-10-05, 15:53:04,VALID,919.445,VALID,0,VALID,81.723,VALID,546.553,VALID,23.229,VALID,342,VALID,0.0410156,
2016-10-05, 15:54:04,VALID,919.495,VALID,0,VALID,81.4867,VALID,551.925,VALID,23.3461,VALID,24,VALID,0,
2016-10-05, 15:55:04,VALID,919.528,VALID,0,VALID,79.0015,VALID,391.945,VALID,23.5022,VALID,344,VALID,1.58008,
2016-10-05, 15:56:04,VALID,919.5,VALID,0,VALID,79.4741,VALID,508.841,VALID,23.4241,VALID,1,VALID,0.957031,
2016-10-05, 15:57:04,VALID,919.518,VALID,0,VALID,80.5185,VALID,407.632,VALID,23.4437,VALID,270,VALID,0,
2016-10-05, 15:58:04,VALID,919.515,VALID,0,VALID,78.9024,VALID,295.785,VALID,23.504,VALID,319,VALID,0.91875,
2016-10-05, 15:59:04,VALID,919.439,VALID,0,VALID,78.788,VALID,270.859,VALID,23.4241,VALID,42,VALID,1.60664,
2016-10-05, 16:00:04,VALID,919.486,VALID,0,VALID,80.1907,VALID,294.926,VALID,23.307,VALID,15,VALID,0.153125,
2016-10-05, 16:01:04,VALID,919.436,VALID,0,VALID,79.9773,VALID,478.758,VALID,23.2094,VALID,21,VALID,3.15703,
2016-10-05, 16:02:04,VALID,919.449,VALID,0,VALID,81.136,VALID,467.906,VALID,23.1899,VALID,21,VALID,2.23086,
2016-10-05, 16:03:04,VALID,919.507,VALID,0,VALID,81.9746,VALID,400.97,VALID,23.3088,VALID,36,VALID,1.13281,
2016-10-05, 16:04:04,VALID,919.491,VALID,0,VALID,80.5719,VALID,332.423,VALID,23.4827,VALID,352,VALID,1.98594,
2016-10-05, 16:05:04,VALID,919.479,VALID,0,VALID,79.2912,VALID,302.662,VALID,23.6584,VALID,7,VALID,0.000390625,
2016-10-05, 16:06:04,VALID,919.517,VALID,0,VALID,78.4678,VALID,266.239,VALID,23.756,VALID,321,VALID,0.0101562,
2016-10-05, 16:07:04,VALID,919.514,VALID,0,VALID,77.9799,VALID,283.43,VALID,23.6193,VALID,5,VALID,2.73633,
2016-10-05, 16:08:04,VALID,919.546,VALID,0,VALID,79.8553,VALID,273.223,VALID,23.4046,VALID,17,VALID,0,
2016-10-05, 16:09:04,VALID,919.517,VALID,0,VALID,79.7257,VALID,256.247,VALID,23.3656,VALID,35,VALID,0,
2016-10-05, 16:10:04,VALID,919.568,VALID,0,VALID,80.0687,VALID,287.405,VALID,23.3674,VALID,96,VALID,0,
2016-10-05, 16:11:04,VALID,919.57,VALID,0,VALID,80.5871,VALID,297.29,VALID,23.4259,VALID,109,VALID,0,
2016-10-05, 16:12:04,VALID,919.568,VALID,0,VALID,79.6113,VALID,294.066,VALID,23.3851,VALID,42,VALID,0,
2016-10-05, 16:13:04,VALID,919.539,VALID,0,VALID,79.8095,VALID,198.014,VALID,23.229,VALID,350,VALID,0.382813,
2016-10-05, 16:14:04,VALID,919.552,VALID,0,VALID,81.0369,VALID,160.41,VALID,23.0533,VALID,343,VALID,0.124609,
2016-10-05, 16:15:04,VALID,919.556,VALID,0,VALID,83.5145,VALID,146.765,VALID,22.7996,VALID,35,VALID,1.19062,
2016-10-05, 16:16:04,VALID,919.634,VALID,0,VALID,85.0392,VALID,156.005,VALID,22.6825,VALID,309,VALID,1.18125,
2016-10-05, 16:17:04,VALID,919.592,VALID,0,VALID,84.1168,VALID,160.087,VALID,22.5655,VALID,80,VALID,1.50703,
2016-10-05, 16:18:04,VALID,919.61,VALID,0,VALID,86.7773,VALID,165.782,VALID,22.4272,VALID,335,VALID,1.28398,
2016-10-05, 16:19:05,VALID,919.689,VALID,0,VALID,86.419,VALID,170.079,VALID,22.4272,VALID,355,VALID,0.227344,
2016-10-05, 16:20:04,VALID,919.613,VALID,0,VALID,88.5307,VALID,164.815,VALID,22.2126,VALID,292,VALID,1.13867,
2016-10-05, 16:30:04,VALID,921.407,VALID,0,INVALID,117.096,VALID,178.245,VALID,21.4729,VALID,35,VALID,1.02109,
2016-10-05, 16:31:04,VALID,919.646,VALID,0,INVALID,117.065,VALID,218.965,VALID,21.4534,VALID,23,VALID,2.14414,
2016-10-05, 16:32:04,VALID,919.707,VALID,0,INVALID,117.096,VALID,256.892,VALID,21.4339,VALID,33,VALID,1.63867,
2016-10-05, 16:33:04,VALID,919.678,VALID,0,INVALID,117.507,VALID,267.958,VALID,21.3949,VALID,37,VALID,1.90898,
2016-10-05, 16:34:04,VALID,919.708,VALID,0,INVALID,117.477,VALID,335.216,VALID,21.3949,VALID,7,VALID,2.82109,
2016-10-05, 16:35:04,VALID,919.706,VALID,0,INVALID,117.492,VALID,424.07,VALID,21.3559,VALID,39,VALID,1.66133,
2016-10-05, 16:36:04,VALID,919.683,VALID,0,INVALID,117.561,VALID,414.723,VALID,21.4144,VALID,2,VALID,1.64727,
2016-10-05, 16:37:04,VALID,919.717,VALID,0,INVALID,118.254,VALID,469.088,VALID,21.5314,VALID,6,VALID,2.02227,
2016-10-05, 16:38:04,VALID,919.678,VALID,0,INVALID,117.561,VALID,400.541,VALID,21.5509,VALID,12,VALID,2.30078,
2016-10-05, 16:39:04,VALID,919.683,VALID,0,INVALID,118.132,VALID,452.005,VALID,21.7087,VALID,21,VALID,1.1375,
2016-10-05, 16:40:04,VALID,919.662,VALID,0,INVALID,118.399,VALID,410.962,VALID,21.8241,VALID,10,VALID,1.64688,
2016-10-05, 16:41:04,VALID,919.656,VALID,0,INVALID,117.767,VALID,322.968,VALID,21.8647,VALID,16,VALID,1.79492,
2016-10-05, 16:42:04,VALID,919.624,VALID,0,INVALID,116.753,VALID,342.737,VALID,21.8647,VALID,10,VALID,2.39883,
2016-10-05, 16:43:04,VALID,919.626,VALID,0,INVALID,116.966,VALID,341.233,VALID,21.8045,VALID,5,VALID,2.01523,
2016-10-05, 16:44:04,VALID,919.643,VALID,0,INVALID,114.405,VALID,316.414,VALID,21.668,VALID,349,VALID,0.459766,
2016-10-05, 16:45:04,VALID,919.618,VALID,0,INVALID,115.914,VALID,274.297,VALID,21.629,VALID,343,VALID,0.433203,
2016-10-05, 16:46:04,VALID,919.607,VALID,0,INVALID,114.245,VALID,244.536,VALID,21.3754,VALID,272,VALID,1.80859,
2016-10-05, 16:47:04,VALID,919.611,VALID,0,INVALID,116.76,VALID,241.313,VALID,21.2974,VALID,356,VALID,0,
2016-10-05, 16:48:04,VALID,919.587,VALID,0,INVALID,117.378,VALID,341.233,VALID,21.2974,VALID,349,VALID,2.63828,
2016-10-05, 16:49:04,VALID,919.613,VALID,0,INVALID,117.218,VALID,333.927,VALID,21.2584,VALID,307,VALID,0,
2016-10-05, 16:50:04,VALID,919.581,VALID,0,INVALID,117.561,VALID,295.356,VALID,21.3559,VALID,337,VALID,0.565234,
2016-10-05, 16:51:04,VALID,919.594,VALID,0,INVALID,117.027,VALID,319.637,VALID,21.3949,VALID,324,VALID,2.01211,
2016-10-05, 16:52:04,VALID,919.563,VALID,0,INVALID,116.303,VALID,250.553,VALID,21.3949,VALID,10,VALID,1.35234,
2016-10-05, 16:53:04,VALID,919.564,VALID,0,INVALID,116.783,VALID,275.049,VALID,21.4534,VALID,322,VALID,1.53984,
2016-10-05, 16:54:04,VALID,919.528,VALID,0,INVALID,116.013,VALID,353.911,VALID,21.3559,VALID,5,VALID,2.49062,
2016-10-05, 16:55:04,VALID,919.552,VALID,0,INVALID,116.379,VALID,374.218,VALID,21.3364,VALID,29,VALID,1.01367,
2016-10-05, 16:56:04,VALID,919.524,VALID,0,INVALID,117.202,VALID,375.507,VALID,21.4729,VALID,8,VALID,1.10117,
2016-10-05, 16:57:04,VALID,919.496,VALID,0,INVALID,117.08,VALID,304.703,VALID,21.6095,VALID,24,VALID,0.656641,
2016-10-05, 16:58:04,VALID,919.511,VALID,0,INVALID,116.181,VALID,286.438,VALID,21.707,VALID,36,VALID,1.3082,
2016-10-05, 16:59:04,VALID,919.474,VALID,0,INVALID,115.967,VALID,296.645,VALID,21.785,VALID,20,VALID,0.728516,
2016-10-05, 17:00:04,VALID,919.45,VALID,0,INVALID,114.252,VALID,278.165,VALID,21.8045,VALID,349,VALID,1.38398,
2016-10-05, 17:01:04,VALID,919.43,VALID,0,INVALID,113.436,VALID,326.191,VALID,21.7655,VALID,20,VALID,1.29258,
2016-10-05, 17:02:04,VALID,919.424,VALID,0,INVALID,114.969,VALID,316.307,VALID,21.785,VALID,18,VALID,1.525,
2016-10-05, 17:03:04,VALID,919.411,VALID,0,INVALID,115.03,VALID,349.291,VALID,21.9021,VALID,7,VALID,1.29609,
2016-10-05, 17:04:04,VALID,919.422,VALID,0,INVALID,114.839,VALID,373.895,VALID,21.9606,VALID,5,VALID,0.567187,
2016-10-05, 17:05:04,VALID,919.361,VALID,0,INVALID,113.978,VALID,362.077,VALID,22.0582,VALID,27,VALID,1.35508,
2016-10-05, 17:06:04,VALID,919.381,VALID,0,INVALID,113.147,VALID,321.464,VALID,22.0972,VALID,18,VALID,0.00585938,
2016-10-05, 17:07:04,VALID,919.385,VALID,0,VALID,104,VALID,297.827,VALID,22.0972,VALID,17,VALID,1.78555,
2016-10-05, 17:08:04,VALID,919.379,VALID,0,VALID,104,VALID,342.093,VALID,22.0777,VALID,15,VALID,2.39531,
2016-10-05, 17:09:04,VALID,919.398,VALID,0,INVALID,111.691,VALID,300.405,VALID,22.0191,VALID,17,VALID,1.48477,
2016-10-05, 17:10:04,VALID,919.406,VALID,0,INVALID,111.637,VALID,280.099,VALID,22.0989,VALID,31,VALID,1.54414,
2016-10-05, 17:11:04,VALID,919.388,VALID,0,INVALID,111.149,VALID,381.846,VALID,22.1362,VALID,24,VALID,1.51406,
2016-10-05, 17:12:04,VALID,919.419,VALID,0,INVALID,111.523,VALID,434.385,VALID,22.0972,VALID,360,VALID,1.01523,
2016-10-05, 17:13:04,VALID,919.419,VALID,0,INVALID,111.142,VALID,383.887,VALID,22.1752,VALID,338,VALID,1.24023,
2016-10-05, 17:14:04,VALID,919.424,VALID,0,INVALID,109.975,VALID,351.547,VALID,22.2728,VALID,3,VALID,0.84375,
2016-10-05, 17:15:04,VALID,919.422,VALID,0,VALID,95.5824,VALID,334.035,VALID,22.2533,VALID,3,VALID,1.58945,
2016-10-05, 17:16:04,VALID,919.441,VALID,0,VALID,103.656,VALID,307.282,VALID,22.2533,VALID,13,VALID,0.648828,
2016-10-05, 17:17:04,VALID,919.434,VALID,0,VALID,104,VALID,309.431,VALID,22.3313,VALID,349,VALID,0.898438,
2016-10-05, 17:18:04,VALID,919.399,VALID,0,VALID,101.956,VALID,359.283,VALID,22.3508,VALID,351,VALID,0.00273437,
2016-10-05, 17:19:04,VALID,919.405,VALID,0,VALID,99.5923,VALID,369.598,VALID,22.2711,VALID,348,VALID,0,
2016-10-05, 17:20:04,VALID,919.371,VALID,0,VALID,89.9258,VALID,367.771,VALID,22.2321,VALID,288,VALID,0.000390625,
2016-10-05, 17:21:04,VALID,919.391,VALID,0,VALID,102.581,VALID,364.763,VALID,22.2142,VALID,240,VALID,1.04102,
2016-10-05, 17:22:04,VALID,919.364,VALID,0,VALID,102.741,VALID,377.763,VALID,22.2142,VALID,260,VALID,0,
2016-10-05, 17:23:04,VALID,919.354,VALID,0,VALID,94.1187,VALID,373.358,VALID,22.2321,VALID,11,VALID,1.27383,
2016-10-05, 17:24:04,VALID,919.318,VALID,0,VALID,91.9918,VALID,347.142,VALID,22.2728,VALID,113,VALID,0,
2016-10-05, 17:25:04,VALID,919.294,VALID,0,VALID,90.5891,VALID,323.076,VALID,22.3296,VALID,39,VALID,1.68945,
2016-10-05, 17:26:04,VALID,919.275,VALID,0,VALID,101.315,VALID,359.391,VALID,22.4467,VALID,9,VALID,1.70547,
2016-10-05, 17:27:04,VALID,919.291,VALID,0,VALID,90.5509,VALID,352.085,VALID,22.5442,VALID,351,VALID,0,
2016-10-05, 17:28:04,VALID,919.305,VALID,0,VALID,88.5841,VALID,309.645,VALID,22.7606,VALID,355,VALID,0,
2016-10-05, 17:29:04,VALID,919.324,VALID,0,VALID,86.9984,VALID,275.372,VALID,22.8174,VALID,8,VALID,0,
2016-10-05, 17:30:04,VALID,919.253,VALID,0,VALID,83.8576,VALID,262.801,VALID,22.8989,VALID,308,VALID,0,
2016-10-05, 17:31:04,VALID,919.22,VALID,0,VALID,82.8742,VALID,282.14,VALID,22.8209,VALID,40,VALID,0,
2016-10-05, 17:32:04,VALID,919.265,VALID,0,VALID,85.9769,VALID,310.075,VALID,22.5459,VALID,279,VALID,0.772656,
2016-10-05, 17:33:04,VALID,919.221,VALID,0,VALID,88.0581,VALID,351.655,VALID,22.5655,VALID,278,VALID,0,
2016-10-05, 17:34:04,VALID,919.216,VALID,0,VALID,86.3047,VALID,419.88,VALID,22.6435,VALID,305,VALID,0,
2016-10-05, 17:35:04,VALID,919.197,VALID,0,VALID,87.5549,VALID,389.152,VALID,22.7216,VALID,42,VALID,0,
2016-10-05, 17:36:04,VALID,919.212,VALID,0,VALID,85.7406,VALID,331.671,VALID,22.8777,VALID,35,VALID,0,
2016-10-05, 17:37:04,VALID,919.143,VALID,0,VALID,83.8804,VALID,283.752,VALID,22.8777,VALID,10,VALID,1.40664,
2016-10-05, 17:38:04,VALID,919.197,VALID,0,VALID,85.2222,VALID,269.785,VALID,22.7198,VALID,29,VALID,0.830469,
2016-10-05, 17:39:04,VALID,919.183,VALID,0,VALID,86.7545,VALID,291.38,VALID,22.7003,VALID,347,VALID,0,
2016-10-05, 17:40:04,VALID,919.155,VALID,0,VALID,86.5715,VALID,306.959,VALID,22.7979,VALID,18,VALID,0,
2016-10-05, 17:41:04,VALID,919.153,VALID,0,VALID,84.6352,VALID,311.257,VALID,22.8955,VALID,14,VALID,0,
2016-10-05, 17:42:04,VALID,919.13,VALID,0,VALID,84.0863,VALID,299.224,VALID,22.9557,VALID,27,VALID,0,
2016-10-05, 17:43:04,VALID,919.097,VALID,0,VALID,86.5105,VALID,284.504,VALID,22.954,VALID,1,VALID,0,
2016-10-05, 17:44:04,VALID,919.099,VALID,0,VALID,83.5831,VALID,283,VALID,23.0125,VALID,3,VALID,0,
2016-10-05, 17:45:04,VALID,919.088,VALID,0,VALID,82.9046,VALID,292.777,VALID,23.0338,VALID,24,VALID,0,
2016-10-05, 17:46:04,VALID,919.036,VALID,0,VALID,83.3163,VALID,311.15,VALID,22.9557,VALID,12,VALID,0,
2016-10-05, 17:47:04,VALID,918.998,VALID,0,VALID,82.9351,VALID,334.142,VALID,22.8937,VALID,304,VALID,0,
2016-10-05, 17:48:04,VALID,918.984,VALID,0,VALID,83.6899,VALID,350.795,VALID,22.7996,VALID,235,VALID,1.23125,
2016-10-05, 17:49:04,VALID,919.005,VALID,0,VALID,85.3899,VALID,352.3,VALID,22.7784,VALID,304,VALID,0.0601562,
2016-10-05, 17:50:04,VALID,918.991,VALID,0,VALID,86.2056,VALID,368.845,VALID,22.8564,VALID,22,VALID,0,
2016-10-05, 17:51:04,VALID,918.996,VALID,0,VALID,86.2132,VALID,356.812,VALID,22.7589,VALID,23,VALID,1.23555,
2016-10-05, 17:52:04,VALID,918.98,VALID,0,VALID,90.2308,VALID,315.447,VALID,22.6613,VALID,31,VALID,1.25117,
2016-10-05, 17:53:04,VALID,918.992,VALID,0,VALID,90.7568,VALID,288.05,VALID,22.7003,VALID,4,VALID,0,
2016-10-05, 17:54:04,VALID,918.985,VALID,0,VALID,83.3925,VALID,279.025,VALID,22.7198,VALID,302,VALID,0.0183594,
2016-10-05, 17:55:04,VALID,918.92,VALID,0,VALID,82.9428,VALID,281.603,VALID,22.6808,VALID,302,VALID,0,
2016-10-05, 17:56:04,VALID,918.924,VALID,0,VALID,84.132,VALID,295.785,VALID,22.6808,VALID,302,VALID,0,
2016-10-05, 17:57:04,VALID,918.902,VALID,0,VALID,84.1244,VALID,305.885,VALID,22.7589,VALID,295,VALID,0,
2016-10-05, 17:58:04,VALID,918.853,VALID,0,VALID,83.6365,VALID,315.232,VALID,22.7198,VALID,298,VALID,0,
2016-10-05, 17:59:04,VALID,918.821,VALID,0,VALID,84.2311,VALID,326.514,VALID,22.7979,VALID,295,VALID,0,
2016-10-05, 18:00:04,VALID,918.761,VALID,0,VALID,84.8639,VALID,335.754,VALID,22.8955,VALID,43,VALID,0,
2016-10-05, 18:01:04,VALID,918.766,VALID,0,VALID,82.6226,VALID,332.208,VALID,23.0924,VALID,51,VALID,0,
2016-10-05, 18:02:04,VALID,918.722,VALID,0,VALID,81.845,VALID,336.935,VALID,23.2094,VALID,51,VALID,0,
2016-10-05, 18:03:04,VALID,918.707,VALID,0,VALID,82.0203,VALID,375.507,VALID,23.3265,VALID,292,VALID,0,
2016-10-05, 18:04:04,VALID,918.652,VALID,0,VALID,83.0952,VALID,399.144,VALID,23.3656,VALID,292,VALID,0,
2016-10-05, 18:05:04,VALID,918.69,VALID,0,VALID,82.3176,VALID,408.384,VALID,23.5022,VALID,298,VALID,0,
2016-10-05, 18:06:04,VALID,918.674,VALID,0,VALID,81.1894,VALID,469.41,VALID,23.7169,VALID,300,VALID,0,
2016-10-05, 18:07:04,VALID,918.702,VALID,0,VALID,78.1629,VALID,508.949,VALID,23.8517,VALID,291,VALID,0,
2016-10-05, 18:08:04,VALID,918.695,VALID,0,VALID,78.4373,VALID,541.826,VALID,23.9707,VALID,342,VALID,0.484375,
2016-10-05, 18:09:04,VALID,918.707,VALID,0,VALID,77.4692,VALID,528.718,VALID,24.0097,VALID,319,VALID,0.903516,